RLX248 DAAG-LKPR

Flight info

Callsign RLX248
Flight time 2h 12m
Altitude 34000
Route OTARO1C OTARO/N0443F360 DCT BALEN DCT PIGOS DCT SUMIR/N0442F370 DCT LIZUM DCT APRAQ
Aircraft B737/M-SDE2E3FGHIRWXY/LB1

Departure

Time 2026-05-06 17:36
Airport Houari Boumediene Airport (DAAG)

Arrival

Time 2026-05-06 19:48
Airport Václav Havel Airport Prague (LKPR)
Time Latitude Longitude Altitude Speed Heading
2026-05-06 17:00 36.69702 3.20733 71 ft 0 kts
2026-05-06 17:23 36.69686 3.20732 46 ft 2 kts
2026-05-06 17:23 36.69670 3.20733 68 ft 2 kts 353°
2026-05-06 17:24 36.69654 3.20737 63 ft 2 kts 340°
2026-05-06 17:24 36.69640 3.20747 65 ft 2 kts 307°
2026-05-06 17:24 36.69634 3.20764 65 ft 1 kts 277°
2026-05-06 17:24 36.69633 3.20767 65 ft 0 kts 276°
2026-05-06 17:28 36.69633 3.20752 70 ft 3 kts 259°
2026-05-06 17:28 36.69619 3.20733 67 ft 3 kts 214°
2026-05-06 17:28 36.69598 3.20727 70 ft 4 kts 179°
2026-05-06 17:28 36.69578 3.20749 64 ft 4 kts 123°
2026-05-06 17:29 36.69563 3.20779 72 ft 4 kts 118°
2026-05-06 17:29 36.69548 3.20807 72 ft 4 kts 137°
2026-05-06 17:29 36.69524 3.20823 71 ft 4 kts 153°
2026-05-06 17:29 36.69499 3.20835 73 ft 4 kts 160°
2026-05-06 17:30 36.69475 3.20845 68 ft 4 kts 163°
2026-05-06 17:30 36.69445 3.20856 69 ft 7 kts 163°
2026-05-06 17:30 36.69378 3.20883 72 ft 11 kts 161°
2026-05-06 17:30 36.69308 3.20918 71 ft 11 kts 143°
2026-05-06 17:31 36.69278 3.20997 66 ft 11 kts 93°
2026-05-06 17:31 36.69274 3.21086 74 ft 10 kts 93°
2026-05-06 17:31 36.69270 3.21173 73 ft 10 kts 93°
2026-05-06 17:31 36.69272 3.21258 72 ft 10 kts 81°
2026-05-06 17:32 36.69302 3.21331 63 ft 9 kts 54°
2026-05-06 17:32 36.69340 3.21397 67 ft 9 kts 54°
2026-05-06 17:32 36.69373 3.21462 65 ft 9 kts 72°
2026-05-06 17:32 36.69378 3.21539 58 ft 9 kts 88°
2026-05-06 17:33 36.69379 3.21614 66 ft 9 kts 92°
2026-05-06 17:33 36.69377 3.21686 65 ft 8 kts 91°
2026-05-06 17:33 36.69377 3.21757 64 ft 8 kts 89°
2026-05-06 17:33 36.69378 3.21826 60 ft 8 kts 89°
2026-05-06 17:34 36.69378 3.21892 61 ft 8 kts 91°
2026-05-06 17:34 36.69378 3.21956 60 ft 7 kts 91°
2026-05-06 17:34 36.69385 3.22017 61 ft 7 kts 64°
2026-05-06 17:34 36.69413 3.22066 64 ft 7 kts 53°
2026-05-06 17:35 36.69426 3.22087 59 ft 0 kts 53°
2026-05-06 17:36 36.69845 3.22780 65 ft 114 kts 53°
2026-05-06 17:36 36.70421 3.23740 166 ft 155 kts 53°
2026-05-06 17:36 36.71120 3.24822 677 ft 165 kts 50°
2026-05-06 17:36 36.71960 3.25917 1145 ft 187 kts 40°
2026-05-06 17:37 36.73134 3.26661 1698 ft 195 kts 10°
2026-05-06 17:37 36.74488 3.26818 2326 ft 198 kts 358°
2026-05-06 17:37 36.75851 3.26524 2906 ft 203 kts 351°
2026-05-06 17:37 36.77243 3.26163 3481 ft 205 kts 349°
2026-05-06 17:38 36.78643 3.25824 4058 ft 205 kts 357°
2026-05-06 17:38 36.80062 3.25978 4639 ft 205 kts 12°
2026-05-06 17:38 36.81455 3.26468 5178 ft 211 kts 17°
2026-05-06 17:38 36.82870 3.27051 5760 ft 216 kts 17°
2026-05-06 17:39 36.84320 3.27657 6362 ft 223 kts 15°
2026-05-06 17:39 36.85815 3.28281 6940 ft 229 kts 17°
2026-05-06 17:39 36.87358 3.28920 7526 ft 237 kts 17°
2026-05-06 17:39 36.88952 3.29580 8126 ft 246 kts 17°
2026-05-06 17:40 36.90614 3.30265 8748 ft 257 kts 16°
2026-05-06 17:40 36.92351 3.30978 9376 ft 269 kts 16°
2026-05-06 17:40 36.94170 3.31724 9986 ft 281 kts 16°
2026-05-06 17:40 36.96039 3.32489 10567 ft 292 kts 16°
2026-05-06 17:41 36.98011 3.33297 11148 ft 304 kts 15°
2026-05-06 17:41 37.00065 3.34138 11747 ft 316 kts 15°
2026-05-06 17:41 37.02156 3.35133 12321 ft 330 kts 29°
2026-05-06 17:41 37.03833 3.37170 12925 ft 345 kts 58°
2026-05-06 17:42 37.04628 3.40020 13558 ft 354 kts 83°
2026-05-06 17:42 37.05046 3.43090 14125 ft 365 kts 69°
2026-05-06 17:42 37.06353 3.45838 14702 ft 373 kts 48°
2026-05-06 17:42 37.08307 3.47990 15266 ft 377 kts 29°
2026-05-06 17:43 37.10583 3.49556 15859 ft 379 kts 24°
2026-05-06 17:43 37.12970 3.51009 16442 ft 384 kts 22°
2026-05-06 17:43 37.15400 3.52431 17034 ft 388 kts 22°
2026-05-06 17:43 37.17860 3.53869 17634 ft 392 kts 22°
2026-05-06 17:44 37.20333 3.55330 18247 ft 393 kts 22°
2026-05-06 17:44 37.22816 3.56817 18787 ft 398 kts 22°
2026-05-06 17:44 37.25332 3.58338 19336 ft 404 kts 23°
2026-05-06 17:44 37.27872 3.59886 19895 ft 408 kts 23°
2026-05-06 17:45 37.30433 3.61455 20465 ft 411 kts 23°
2026-05-06 17:45 37.32983 3.63022 21031 ft 414 kts 23°
2026-05-06 17:45 37.35585 3.64625 21625 ft 419 kts 23°
2026-05-06 17:45 37.38211 3.66243 22228 ft 423 kts 23°
2026-05-06 17:46 37.40872 3.67885 22842 ft 427 kts 23°
2026-05-06 17:46 37.43547 3.69537 23482 ft 430 kts 23°
2026-05-06 17:46 37.46248 3.71206 24016 ft 433 kts 23°
2026-05-06 17:46 37.48965 3.72886 24557 ft 435 kts 23°
2026-05-06 17:47 37.51686 3.74570 25107 ft 437 kts 23°
2026-05-06 17:47 37.54386 3.76242 25659 ft 438 kts 23°
2026-05-06 17:47 37.57126 3.77942 26229 ft 439 kts 22°
2026-05-06 17:47 37.59873 3.79646 26806 ft 440 kts 22°
2026-05-06 17:48 37.62628 3.81357 27396 ft 440 kts 22°
2026-05-06 17:48 37.65380 3.83067 27993 ft 440 kts 22°
2026-05-06 17:48 37.68132 3.84778 28623 ft 440 kts 22°
2026-05-06 17:48 37.70876 3.86487 29252 ft 439 kts 22°
2026-05-06 17:49 37.73583 3.88173 29881 ft 438 kts 22°
2026-05-06 17:49 37.76320 3.89880 30444 ft 437 kts 22°
2026-05-06 17:49 37.79041 3.91578 31002 ft 435 kts 22°
2026-05-06 17:49 37.81749 3.93269 31572 ft 433 kts 22°
2026-05-06 17:50 37.84446 3.94955 32153 ft 430 kts 21°
2026-05-06 17:50 37.87115 3.96626 32738 ft 426 kts 21°
2026-05-06 17:50 37.89727 3.98262 33353 ft 422 kts 21°
2026-05-06 17:50 37.92341 3.99900 33959 ft 417 kts 21°
2026-05-06 17:51 37.94924 4.01521 34479 ft 411 kts 21°
2026-05-06 17:51 37.97477 4.03124 34990 ft 405 kts 21°
2026-05-06 17:51 37.99982 4.04699 35513 ft 399 kts 20°
2026-05-06 17:51 38.02456 4.06254 35903 ft 397 kts 20°
2026-05-06 17:52 38.05029 4.07763 35312 ft 422 kts 18°
2026-05-06 17:52 38.06859 4.08768 34834 ft 441 kts 18°
2026-05-06 17:52 38.13499 4.12364 35594 ft 442 kts 22°
2026-05-06 17:53 38.16192 4.14221 36122 ft 437 kts 24°
2026-05-06 17:53 38.18816 4.16117 36668 ft 430 kts 24°
2026-05-06 17:53 38.20578 4.17375 36936 ft 429 kts 23°
2026-05-06 17:53 38.23189 4.19181 36885 ft 437 kts 22°
2026-05-06 17:54 38.28651 4.22770 36934 ft 448 kts 21°
2026-05-06 17:54 38.34310 4.26370 36938 ft 461 kts 21°
2026-05-06 17:55 38.40130 4.30056 36944 ft 473 kts 21°
2026-05-06 17:55 38.46101 4.33850 36941 ft 485 kts 21°
2026-05-06 17:56 38.52159 4.37715 36930 ft 491 kts 21°
2026-05-06 17:56 38.58269 4.41626 36939 ft 491 kts 21°
2026-05-06 17:57 38.64385 4.45545 36923 ft 491 kts 21°
2026-05-06 17:57 38.70487 4.49460 36927 ft 490 kts 21°
2026-05-06 17:58 38.76546 4.53354 36930 ft 488 kts 21°
2026-05-06 17:58 38.82615 4.57262 36947 ft 487 kts 21°
2026-05-06 17:59 38.88672 4.61165 36929 ft 486 kts 21°
2026-05-06 17:59 38.94683 4.65051 36930 ft 486 kts 21°
2026-05-06 18:00 39.00728 4.68931 36930 ft 483 kts 19°
2026-05-06 18:00 39.06927 4.72188 36934 ft 481 kts 15°
2026-05-06 18:01 39.13205 4.75218 36942 ft 481 kts 15°
2026-05-06 18:01 39.19438 4.78269 36938 ft 482 kts 15°
2026-05-06 18:02 39.25710 4.81408 36956 ft 483 kts 15°
2026-05-06 18:02 39.31984 4.84579 36944 ft 484 kts 15°
2026-05-06 18:03 39.38261 4.87761 36940 ft 485 kts 15°
2026-05-06 18:03 39.44555 4.90955 36940 ft 485 kts 15°
2026-05-06 18:04 39.50839 4.94148 36946 ft 486 kts 16°
2026-05-06 18:04 39.57099 4.97334 36934 ft 486 kts 16°
2026-05-06 18:05 39.63391 5.00544 36941 ft 486 kts 16°
2026-05-06 18:05 39.69687 5.03762 36969 ft 485 kts 16°
2026-05-06 18:06 39.75983 5.06985 36948 ft 486 kts 16°
2026-05-06 18:06 39.82273 5.10212 36944 ft 485 kts 16°
2026-05-06 18:07 39.88521 5.13424 36948 ft 485 kts 16°
2026-05-06 18:07 39.94807 5.16661 36954 ft 486 kts 16°
2026-05-06 18:08 40.01091 5.19905 36955 ft 486 kts 16°
2026-05-06 18:08 40.07391 5.23162 36950 ft 486 kts 16°
2026-05-06 18:09 40.13643 5.26402 36975 ft 486 kts 16°
2026-05-06 18:09 40.19933 5.29667 36957 ft 487 kts 16°
2026-05-06 18:10 40.26234 5.32946 36956 ft 487 kts 16°
2026-05-06 18:10 40.32535 5.36231 36951 ft 487 kts 16°
2026-05-06 18:11 40.38826 5.39516 36947 ft 487 kts 16°
2026-05-06 18:11 40.45128 5.42815 36959 ft 487 kts 16°
2026-05-06 18:12 40.51389 5.46099 36957 ft 487 kts 17°
2026-05-06 18:12 40.57689 5.49410 36948 ft 487 kts 17°
2026-05-06 18:13 40.63987 5.52726 36952 ft 488 kts 17°
2026-05-06 18:13 40.70293 5.56053 36952 ft 487 kts 17°
2026-05-06 18:14 40.76589 5.59383 36957 ft 488 kts 17°
2026-05-06 18:14 40.82909 5.62731 36959 ft 488 kts 17°
2026-05-06 18:15 40.89175 5.66059 36957 ft 489 kts 17°
2026-05-06 18:15 40.95485 5.69420 36959 ft 489 kts 17°
2026-05-06 18:16 41.01736 5.73071 36967 ft 491 kts 20°
2026-05-06 18:16 41.07949 5.76890 36960 ft 492 kts 20°
2026-05-06 18:17 41.14173 5.80702 36960 ft 492 kts 20°
2026-05-06 18:17 41.20359 5.84457 36992 ft 492 kts 19°
2026-05-06 18:18 41.26602 5.88236 36966 ft 493 kts 19°
2026-05-06 18:18 41.32851 5.92024 36964 ft 494 kts 20°
2026-05-06 18:19 41.39104 5.95826 36956 ft 494 kts 20°
2026-05-06 18:19 41.45355 5.99636 36963 ft 494 kts 20°
2026-05-06 18:20 41.51616 6.03460 36960 ft 495 kts 20°
2026-05-06 18:20 41.57882 6.07296 36959 ft 495 kts 20°
2026-05-06 18:21 41.64152 6.11142 36963 ft 495 kts 20°
2026-05-06 18:21 41.70408 6.14988 36955 ft 495 kts 20°
2026-05-06 18:22 41.76630 6.18820 36462 ft 495 kts 22°
2026-05-06 18:22 41.79729 6.20731 37212 ft 484 kts 21°
2026-05-06 18:22 41.82820 6.22639 37047 ft 494 kts 20°
2026-05-06 18:23 41.89117 6.26530 36985 ft 500 kts 20°
2026-05-06 18:23 41.95465 6.30469 36963 ft 502 kts 20°
2026-05-06 18:24 42.01752 6.34380 36950 ft 501 kts 20°
2026-05-06 18:24 42.08117 6.38346 36946 ft 500 kts 20°
2026-05-06 18:25 42.14373 6.42251 36946 ft 498 kts 20°
2026-05-06 18:25 42.20658 6.46182 36942 ft 497 kts 20°
2026-05-06 18:26 42.26920 6.50108 36948 ft 495 kts 20°
2026-05-06 18:26 42.33174 6.54036 36938 ft 494 kts 20°
2026-05-06 18:27 42.39410 6.57963 36939 ft 493 kts 20°
2026-05-06 18:27 42.45592 6.61864 36945 ft 493 kts 20°
2026-05-06 18:28 42.51810 6.65796 36934 ft 493 kts 20°
2026-05-06 18:28 42.58027 6.69736 36928 ft 493 kts 20°
2026-05-06 18:29 42.64253 6.73691 36928 ft 493 kts 21°
2026-05-06 18:29 42.70485 6.77658 36924 ft 494 kts 21°
2026-05-06 18:30 42.76684 6.81614 36930 ft 495 kts 21°
2026-05-06 18:30 42.82928 6.85606 36924 ft 496 kts 21°
2026-05-06 18:31 42.89177 6.89612 36921 ft 496 kts 21°
2026-05-06 18:31 42.95433 6.93630 36922 ft 497 kts 21°
2026-05-06 18:32 43.01689 6.97658 36940 ft 497 kts 21°
2026-05-06 18:32 43.07922 7.01681 36915 ft 498 kts 21°
2026-05-06 18:33 43.14180 7.05728 36899 ft 498 kts 21°
2026-05-06 18:33 43.20443 7.09788 36901 ft 497 kts 21°
2026-05-06 18:34 43.26696 7.13851 36888 ft 497 kts 21°
2026-05-06 18:34 43.32936 7.17915 36873 ft 496 kts 21°
2026-05-06 18:35 43.39138 7.21963 36865 ft 496 kts 21°
2026-05-06 18:35 43.45367 7.26038 36858 ft 496 kts 22°
2026-05-06 18:36 43.51612 7.30134 36867 ft 496 kts 22°
2026-05-06 18:36 43.57859 7.34239 36859 ft 496 kts 22°
2026-05-06 18:37 43.62835 7.38212 36857 ft 500 kts 35°
2026-05-06 18:37 43.68697 7.45948 36856 ft 502 kts 45°
2026-05-06 18:38 43.73516 7.52954 36849 ft 502 kts 45°
2026-05-06 18:38 43.78355 7.59936 36821 ft 503 kts 45°
2026-05-06 18:39 43.83228 7.66895 36832 ft 503 kts 45°
2026-05-06 18:40 43.90558 7.77337 36837 ft 503 kts 45°
2026-05-06 18:40 43.95435 7.84311 36832 ft 503 kts 45°
2026-05-06 18:41 44.00282 7.91265 36839 ft 504 kts 45°
2026-05-06 18:41 44.05148 7.98263 36809 ft 502 kts 45°
2026-05-06 18:42 44.09999 8.05256 36826 ft 503 kts 45°
2026-05-06 18:42 44.14041 8.11099 36870 ft 504 kts 45°
2026-05-06 18:43 44.19705 8.19305 36840 ft 505 kts 45°
2026-05-06 18:43 44.23789 8.25236 36832 ft 507 kts 45°
2026-05-06 18:44 44.28639 8.32298 36829 ft 506 kts 45°
2026-05-06 18:44 44.33503 8.39400 36831 ft 506 kts 46°
2026-05-06 18:45 44.38365 8.46515 36842 ft 504 kts 45°
2026-05-06 18:45 44.43192 8.53596 36879 ft 503 kts 46°
2026-05-06 18:46 44.48031 8.60714 36876 ft 503 kts 46°
2026-05-06 18:46 44.52846 8.67816 36879 ft 502 kts 46°
2026-05-06 18:47 44.57649 8.74916 36857 ft 501 kts 46°
2026-05-06 18:47 44.62408 8.81970 36881 ft 500 kts 46°
2026-05-06 18:48 44.67193 8.89082 36889 ft 500 kts 46°
2026-05-06 18:48 44.71971 8.96201 36887 ft 500 kts 46°
2026-05-06 18:49 44.76748 9.03336 36878 ft 501 kts 46°
2026-05-06 18:49 44.81530 9.10499 36875 ft 501 kts 47°
2026-05-06 18:50 44.86310 9.17677 36835 ft 502 kts 47°
2026-05-06 18:50 44.91047 9.24808 36861 ft 501 kts 47°
2026-05-06 18:51 44.95815 9.32004 36868 ft 502 kts 47°
2026-05-06 18:51 45.00583 9.39220 36877 ft 502 kts 47°
2026-05-06 18:52 45.05353 9.46457 36862 ft 502 kts 47°
2026-05-06 18:52 45.10084 9.53655 36855 ft 503 kts 47°
2026-05-06 18:53 45.14850 9.60924 36857 ft 503 kts 47°
2026-05-06 18:53 45.19615 9.68211 36831 ft 504 kts 47°
2026-05-06 18:54 45.24375 9.75509 36861 ft 504 kts 47°
2026-05-06 18:54 45.29142 9.82839 36849 ft 505 kts 47°
2026-05-06 18:55 45.33906 9.90183 36853 ft 506 kts 47°
2026-05-06 18:55 45.38678 9.97558 36841 ft 506 kts 47°
2026-05-06 18:56 45.43417 10.04902 36837 ft 507 kts 47°
2026-05-06 18:56 45.48181 10.12306 36832 ft 507 kts 47°
2026-05-06 18:57 45.52936 10.19715 36824 ft 507 kts 47°
2026-05-06 18:57 45.57694 10.27149 36839 ft 507 kts 47°
2026-05-06 18:58 45.62449 10.34601 36887 ft 508 kts 48°
2026-05-06 18:58 45.67205 10.42072 36902 ft 508 kts 48°
2026-05-06 18:59 45.71945 10.49536 36818 ft 503 kts 47°
2026-05-06 18:59 45.76602 10.56890 36726 ft 501 kts 48°
2026-05-06 19:00 45.81290 10.64315 36629 ft 503 kts 48°
2026-05-06 19:00 45.83648 10.68061 36440 ft 507 kts 48°
2026-05-06 19:00 45.86021 10.71834 36167 ft 511 kts 48°
2026-05-06 19:00 45.88390 10.75602 35991 ft 505 kts 48°
2026-05-06 19:01 45.90727 10.79325 35957 ft 500 kts 48°
2026-05-06 19:01 45.95369 10.86735 35955 ft 500 kts 48°
2026-05-06 19:02 46.00036 10.94208 35962 ft 502 kts 48°
2026-05-06 19:02 46.04707 11.01707 35978 ft 504 kts 49°
2026-05-06 19:03 46.09375 11.09224 35972 ft 503 kts 48°
2026-05-06 19:03 46.14009 11.16705 35966 ft 503 kts 49°
2026-05-06 19:04 46.18661 11.24236 35942 ft 502 kts 49°
2026-05-06 19:04 46.23373 11.31679 35921 ft 501 kts 42°
2026-05-06 19:05 46.29097 11.37314 35934 ft 497 kts 23°
2026-05-06 19:05 46.35562 11.40648 35932 ft 492 kts 13°
2026-05-06 19:06 46.42130 11.43511 35908 ft 491 kts 13°
2026-05-06 19:06 46.48675 11.46425 35881 ft 491 kts 14°
2026-05-06 19:07 46.55145 11.49378 35890 ft 491 kts 14°
2026-05-06 19:07 46.61655 11.52385 35887 ft 489 kts 14°
2026-05-06 19:08 46.68143 11.55383 35885 ft 489 kts 14°
2026-05-06 19:08 46.74637 11.58389 35879 ft 488 kts 14°
2026-05-06 19:09 46.81117 11.61398 35892 ft 488 kts 15°
2026-05-06 19:09 46.87597 11.64409 35860 ft 489 kts 15°
2026-05-06 19:10 46.94097 11.67441 35887 ft 492 kts 15°
2026-05-06 19:10 46.97366 11.68968 36116 ft 493 kts 15°
2026-05-06 19:10 47.00621 11.70493 36549 ft 489 kts 15°
2026-05-06 19:10 47.03807 11.71985 36864 ft 487 kts 15°
2026-05-06 19:11 47.07048 11.73505 36816 ft 488 kts 15°
2026-05-06 19:11 47.13420 11.77084 36834 ft 489 kts 28°
2026-05-06 19:12 47.19199 11.82161 36839 ft 487 kts 31°
2026-05-06 19:12 47.24967 11.87413 36853 ft 487 kts 31°
2026-05-06 19:13 47.30750 11.92623 36836 ft 487 kts 30°
2026-05-06 19:13 47.36566 11.97813 36820 ft 487 kts 30°
2026-05-06 19:14 47.42338 12.02958 36825 ft 489 kts 30°
2026-05-06 19:14 47.48172 12.08170 36817 ft 490 kts 30°
2026-05-06 19:15 47.54011 12.13405 36853 ft 491 kts 30°
2026-05-06 19:15 47.59865 12.18668 36862 ft 492 kts 31°
2026-05-06 19:16 47.65717 12.23945 36863 ft 492 kts 31°
2026-05-06 19:16 47.71577 12.29242 36859 ft 492 kts 31°
2026-05-06 19:17 47.77381 12.34503 36881 ft 491 kts 31°
2026-05-06 19:17 47.83222 12.39810 36867 ft 491 kts 31°
2026-05-06 19:18 47.89043 12.45115 36886 ft 490 kts 31°
2026-05-06 19:18 47.94843 12.50414 36656 ft 486 kts 31°
2026-05-06 19:18 47.97720 12.53048 36403 ft 482 kts 31°
2026-05-06 19:19 48.00576 12.55666 36147 ft 481 kts 31°
2026-05-06 19:19 48.03404 12.58262 35898 ft 482 kts 31°
2026-05-06 19:19 48.06263 12.60889 35658 ft 484 kts 31°
2026-05-06 19:19 48.09131 12.63528 35416 ft 485 kts 31°
2026-05-06 19:20 48.12011 12.66181 35171 ft 485 kts 31°
2026-05-06 19:20 48.14889 12.68837 34918 ft 486 kts 30°
2026-05-06 19:20 48.17764 12.71494 34677 ft 486 kts 30°
2026-05-06 19:20 48.20650 12.74164 34422 ft 486 kts 30°
2026-05-06 19:21 48.23537 12.76839 34188 ft 486 kts 30°
2026-05-06 19:21 48.26416 12.79509 33958 ft 486 kts 30°
2026-05-06 19:21 48.29261 12.82152 33884 ft 486 kts 30°
2026-05-06 19:22 48.35014 12.87506 33850 ft 486 kts 30°
2026-05-06 19:22 48.40757 12.92867 33834 ft 485 kts 30°
2026-05-06 19:23 48.46485 12.98227 33824 ft 485 kts 31°
2026-05-06 19:23 48.52216 13.03604 33806 ft 485 kts 31°
2026-05-06 19:24 48.57944 13.08994 33826 ft 486 kts 31°
2026-05-06 19:24 48.63689 13.14413 33552 ft 492 kts 30°
2026-05-06 19:24 48.66605 13.17168 33272 ft 492 kts 30°
2026-05-06 19:25 48.69494 13.19903 32990 ft 488 kts 30°
2026-05-06 19:25 48.72337 13.22599 32724 ft 487 kts 31°
2026-05-06 19:25 48.75209 13.25326 32465 ft 487 kts 31°
2026-05-06 19:25 48.77147 13.27167 32300 ft 487 kts 31°
2026-05-06 19:26 48.80954 13.30790 31972 ft 487 kts 31°
2026-05-06 19:26 48.82891 13.32635 31783 ft 486 kts 31°
2026-05-06 19:26 48.86687 13.36258 31445 ft 485 kts 31°
2026-05-06 19:26 48.88612 13.38098 31274 ft 484 kts 31°
2026-05-06 19:27 48.91421 13.40785 30939 ft 483 kts 31°
2026-05-06 19:27 48.94270 13.43513 30195 ft 484 kts 31°
2026-05-06 19:27 48.97110 13.46238 29497 ft 482 kts 31°
2026-05-06 19:27 48.99935 13.48952 28701 ft 479 kts 31°
2026-05-06 19:28 49.02748 13.51658 27944 ft 475 kts 31°
2026-05-06 19:28 49.05533 13.54340 27232 ft 472 kts 32°
2026-05-06 19:28 49.08270 13.56980 26935 ft 459 kts 31°
2026-05-06 19:28 49.10934 13.59555 26757 ft 444 kts 31°
2026-05-06 19:29 49.13524 13.62059 26585 ft 438 kts 32°
2026-05-06 19:29 49.16093 13.64546 26419 ft 439 kts 32°
2026-05-06 19:29 49.18677 13.67050 26263 ft 440 kts 32°
2026-05-06 19:29 49.21258 13.69555 26100 ft 440 kts 32°
2026-05-06 19:30 49.23848 13.72071 25901 ft 441 kts 32°
2026-05-06 19:30 49.26440 13.74592 25589 ft 440 kts 32°
2026-05-06 19:30 49.29024 13.77110 25048 ft 437 kts 32°
2026-05-06 19:30 49.31547 13.79572 24556 ft 433 kts 32°
2026-05-06 19:31 49.34072 13.82038 24050 ft 429 kts 32°
2026-05-06 19:31 49.36585 13.84495 23542 ft 426 kts 32°
2026-05-06 19:31 49.41557 13.89366 22371 ft 420 kts 32°
2026-05-06 19:32 49.43986 13.91751 22064 ft 410 kts 32°
2026-05-06 19:32 49.46369 13.94093 21651 ft 403 kts 32°
2026-05-06 19:32 49.48721 13.96407 21122 ft 401 kts 32°
2026-05-06 19:32 49.51058 13.98709 20590 ft 398 kts 32°
2026-05-06 19:33 49.53388 14.01006 20107 ft 395 kts 32°
2026-05-06 19:33 49.54920 14.02518 19792 ft 392 kts 32°
2026-05-06 19:33 49.57961 14.05523 19058 ft 391 kts 32°
2026-05-06 19:33 49.60249 14.07786 18574 ft 389 kts 32°
2026-05-06 19:34 49.62519 14.10034 18137 ft 385 kts 32°
2026-05-06 19:34 49.64902 14.11841 17601 ft 379 kts 12°
2026-05-06 19:34 49.67489 14.12168 17143 ft 369 kts 353°
2026-05-06 19:34 49.69975 14.11435 16674 ft 360 kts 340°
2026-05-06 19:35 49.72364 14.10322 16202 ft 357 kts 339°
2026-05-06 19:35 49.74710 14.09159 15762 ft 352 kts 339°
2026-05-06 19:35 49.77036 14.07996 15268 ft 350 kts 339°
2026-05-06 19:35 49.79350 14.06850 14792 ft 348 kts 339°
2026-05-06 19:36 49.81651 14.05723 14325 ft 346 kts 339°
2026-05-06 19:36 49.83937 14.04614 13869 ft 343 kts 340°
2026-05-06 19:36 49.86209 14.03518 13412 ft 340 kts 340°
2026-05-06 19:36 49.88481 14.02482 12909 ft 338 kts 342°
2026-05-06 19:37 49.90685 14.01472 12609 ft 329 kts 340°
2026-05-06 19:37 49.92824 14.00424 12514 ft 315 kts 339°
2026-05-06 19:37 49.94878 13.99410 12414 ft 303 kts 339°
2026-05-06 19:37 49.96860 13.98435 12200 ft 295 kts 339°
2026-05-06 19:38 49.98810 13.97480 11813 ft 294 kts 339°
2026-05-06 19:38 50.00764 13.96526 11435 ft 293 kts 339°
2026-05-06 19:38 50.02703 13.95585 11093 ft 291 kts 339°
2026-05-06 19:38 50.04633 13.94649 10738 ft 290 kts 339°
2026-05-06 19:39 50.06559 13.93717 10395 ft 289 kts 339°
2026-05-06 19:39 50.08475 13.92789 10064 ft 287 kts 339°
2026-05-06 19:39 50.10356 13.91879 9717 ft 286 kts 339°
2026-05-06 19:39 50.12253 13.90960 9355 ft 284 kts 339°
2026-05-06 19:40 50.14123 13.90054 9173 ft 276 kts 339°
2026-05-06 19:40 50.15936 13.89180 8899 ft 272 kts 340°
2026-05-06 19:40 50.17827 13.88904 8572 ft 275 kts
2026-05-06 19:40 50.19720 13.88842 8283 ft 270 kts 350°
2026-05-06 19:41 50.21558 13.88361 7991 ft 267 kts 350°
2026-05-06 19:41 50.23414 13.88223 7643 ft 268 kts
2026-05-06 19:41 50.25248 13.88624 7255 ft 265 kts 13°
2026-05-06 19:41 50.26982 13.89519 6885 ft 260 kts 20°
2026-05-06 19:42 50.28655 13.90515 6519 ft 255 kts 20°
2026-05-06 19:42 50.30263 13.91621 6140 ft 251 kts 31°
2026-05-06 19:42 50.31415 13.93575 5723 ft 245 kts 69°
2026-05-06 19:42 50.31561 13.96140 5342 ft 237 kts 108°
2026-05-06 19:43 50.30689 13.98203 4961 ft 226 kts 147°
2026-05-06 19:43 50.29344 13.99409 4635 ft 227 kts 154°
2026-05-06 19:43 50.27922 14.00555 4255 ft 230 kts 154°
2026-05-06 19:43 50.26489 14.01600 4010 ft 221 kts 162°
2026-05-06 19:44 50.25040 14.02277 4008 ft 216 kts 165°
2026-05-06 19:44 50.23598 14.02932 4003 ft 216 kts 165°
2026-05-06 19:44 50.22148 14.03590 4011 ft 217 kts 165°
2026-05-06 19:44 50.20717 14.04334 3990 ft 217 kts 150°
2026-05-06 19:45 50.19714 14.05996 4015 ft 215 kts 122°
2026-05-06 19:45 50.18840 14.07951 3804 ft 222 kts 128°
2026-05-06 19:45 50.17898 14.09841 3520 ft 217 kts 127°
2026-05-06 19:45 50.17006 14.11669 3231 ft 206 kts 126°
2026-05-06 19:46 50.16165 14.13409 2959 ft 194 kts 126°
2026-05-06 19:46 50.15390 14.15012 2716 ft 177 kts 125°
2026-05-06 19:46 50.14681 14.16482 2490 ft 164 kts 124°
2026-05-06 19:46 50.14027 14.17835 2288 ft 151 kts 124°
2026-05-06 19:47 50.13418 14.19102 2090 ft 145 kts 123°
2026-05-06 19:47 50.12820 14.20338 1896 ft 144 kts 125°
2026-05-06 19:47 50.12213 14.21597 1685 ft 143 kts 125°
2026-05-06 19:47 50.11630 14.22806 1493 ft 141 kts 125°
2026-05-06 19:48 50.11037 14.24035 1320 ft 142 kts 125°
2026-05-06 19:48 50.10446 14.25258 1175 ft 133 kts 126°
2026-05-06 19:48 50.09983 14.26229 1195 ft 90 kts 126°
2026-05-06 19:48 50.09702 14.26818 1208 ft 46 kts 127°
2026-05-06 19:49 50.09586 14.27052 1206 ft 29 kts 127°
2026-05-06 19:49 50.09429 14.27422 1209 ft 20 kts 77°
2026-05-06 19:49 50.09524 14.27551 1212 ft 16 kts 38°
2026-05-06 19:49 50.09611 14.27643 1210 ft 1 kts 11°
2026-05-06 19:50 50.09617 14.27645 1209 ft 2 kts 11°
2026-05-06 19:50 50.09656 14.27617 1207 ft 10 kts 318°
2026-05-06 19:50 50.09711 14.27533 1205 ft 11 kts 315°
2026-05-06 19:50 50.09767 14.27445 1204 ft 11 kts 315°
2026-05-06 19:51 50.09821 14.27362 1203 ft 11 kts 315°
2026-05-06 19:51 50.09871 14.27278 1201 ft 11 kts 308°
2026-05-06 19:51 50.09915 14.27188 1200 ft 10 kts 307°
2026-05-06 19:51 50.09958 14.27099 1198 ft 11 kts 307°
2026-05-06 19:52 50.10013 14.26984 1194 ft 19 kts 307°
2026-05-06 19:52 50.10102 14.26801 1183 ft 24 kts 307°
2026-05-06 19:52 50.10205 14.26590 1175 ft 24 kts 307°
2026-05-06 19:52 50.10303 14.26389 1173 ft 23 kts 307°
2026-05-06 19:53 50.10396 14.26195 1174 ft 22 kts 307°
2026-05-06 19:53 50.10484 14.26014 1175 ft 19 kts 307°
2026-05-06 19:53 50.10555 14.25854 1174 ft 12 kts 303°
2026-05-06 19:53 50.10622 14.25811 1173 ft 12 kts 28°
2026-05-06 19:54 50.10690 14.25883 1172 ft 12 kts 34°
2026-05-06 19:54 50.10755 14.25951 1170 ft 11 kts 34°
2026-05-06 19:54 50.10820 14.26021 1171 ft 11 kts 35°
2026-05-06 19:54 50.10885 14.26091 1169 ft 11 kts 34°
2026-05-06 19:55 50.10967 14.26178 1166 ft 18 kts 34°
2026-05-06 19:55 50.11070 14.26291 1164 ft 18 kts 43°
2026-05-06 19:55 50.11074 14.26473 1171 ft 17 kts 97°
2026-05-06 19:55 50.11029 14.26605 1173 ft 14 kts 143°
2026-05-06 19:56 50.10973 14.26660 1173 ft 8 kts 148°
2026-05-06 19:56 50.10929 14.26710 1173 ft 6 kts 139°
2026-05-06 19:56 50.10897 14.26717 1172 ft 5 kts 204°
2026-05-06 19:56 50.10881 14.26701 1173 ft 0 kts 211°
2026-05-06 19:57 50.10880 14.26700 1173 ft 1 kts 211°